Lewisburg, WV

5:22 AM EST on December 17, 2017 (GMT -0500)
Greenbrier Valley

Weather History for KLWB - May, 2014

Change the Weather History Date:

Sunday, May 11, 2014

  Actual Average Record
Temperature  
Mean Temperature 66 °F 57 °F  
Max Temperature 79 °F 70 °F 87 °F (2015)
Min Temperature 52 °F 44 °F 32 °F (1997)
Degree Days  
Heating Degree Days 0    
Month to date heating degree days 58  
Since 1 July heating degree days 4606  
Cooling Degree Days 1    
Month to date cooling degree days 4  
Year to date cooling degree days 4  
Growing Degree Days 15 (Base 50)    
Moisture  
Dew Point 49 °F    
Average Humidity 61    
Maximum Humidity 96    
Minimum Humidity 25    
Precipitation  
Precipitation 0.00 in - 0.70 in (2016)
Month to date precipitation 0.64  
Year to date precipitation 8.50  
Snow  
Snow 0.00 in - - ()
Month to date snowfall 0.0  
Since 1 July snowfall 40.4  
Snow Depth 0.00 in    
Sea Level Pressure  
Sea Level Pressure 30.16 in    
Wind  
Wind Speed 2 mph (WSW)    
Max Wind Speed 10 mph    
Max Gust Speed -    
Visibility 8 miles    
Events      
T = Trace of Precipitation, MM = Missing Value Source: NWS Daily Summary

Daily Weather History Graph

Daily Weather History Graph

Search for Another Location

Airport or City:

Trip Planner

Search our weather history database for the weather conditions in past years. The results will help you decide how hot, cold, wet, or windy it might be!

Date:

Astronomy

May. 11, 2014 Rise Set
Actual Time 6:15 AM EDT 8:21 PM EDT
Civil Twilight 5:46 AM EDT 8:50 PM EDT
Nautical Twilight 5:10 AM EDT 9:26 PM EDT
Astronomical Twilight 4:32 AM EDT 10:04 PM EDT
Moon 5:18 PM EDT (5/11) 4:15 AM EDT (5/11)
Length of Visible Light 15h 04m
Length of Day
14h 06m
Waxing Gibbous, 89% of the Moon is Illuminated
May 11
Waxing Gibbous
May 14
Full
May 21
Last Quarter
May 28
New
Jun 5
First Quarter

Hourly Weather History & Observations

Time (EDT) Temp. Dew Point Humidity Pressure Visibility Wind Dir Wind Speed Gust Speed Precip Events Conditions
12:15 AM 57.6 °F 55.8 °F 94% 30.11 in 10.0 mi Calm Calm - N/A   Overcast
12:35 AM 57.2 °F 55.4 °F 94% 30.11 in 10.0 mi Calm Calm - N/A   Overcast
12:55 AM 56.1 °F 54.3 °F 94% 30.11 in 7.0 mi NNE 3.5 mph - N/A   Overcast
1:15 AM 56.3 °F 54.1 °F 92% 30.11 in 10.0 mi Calm Calm - N/A   Overcast
1:35 AM 55.8 °F 54.0 °F 94% 30.10 in 10.0 mi Calm Calm - N/A   Overcast
2:15 AM 55.9 °F 54.1 °F 94% 30.10 in 5.0 mi Calm Calm - N/A   Overcast
2:35 AM 56.3 °F 54.5 °F 94% 30.10 in 1.5 mi Calm Calm - N/A   Overcast
2:55 AM 56.1 °F 54.3 °F 94% 30.10 in 1.0 mi Calm Calm - N/A   Overcast
3:15 AM 56.3 °F 54.7 °F 94% 30.11 in 4.0 mi Calm Calm - N/A   Mostly Cloudy
3:35 AM 55.9 °F 54.5 °F 95% 30.11 in 5.0 mi Calm Calm - N/A   Mostly Cloudy
3:55 AM 56.3 °F 54.5 °F 94% 30.11 in 7.0 mi Calm Calm - N/A   Overcast
4:15 AM 56.1 °F 54.5 °F 94% 30.12 in 7.0 mi Calm Calm - N/A   Mostly Cloudy
4:35 AM 55.8 °F 54.3 °F 95% 30.12 in 10.0 mi Calm Calm - N/A   Mostly Cloudy
4:55 AM 56.3 °F 54.5 °F 94% 30.12 in 10.0 mi Calm Calm - N/A   Overcast
5:15 AM 54.3 °F 52.5 °F 94% 30.12 in 4.0 mi SW 3.5 mph - N/A   Scattered Clouds
5:35 AM 52.3 °F 50.5 °F 94% 30.13 in 0.2 mi South 3.5 mph - N/A   Mostly Cloudy
5:55 AM 52.2 °F 50.5 °F 94% 30.13 in 0.2 mi Calm Calm - N/A   Overcast
6:15 AM 53.6 °F 51.8 °F 94% 30.14 in 0.2 mi Calm Calm - N/A   Overcast
6:35 AM 54.0 °F 52.3 °F 94% 30.15 in 0.2 mi South 3.5 mph - N/A   Overcast
6:55 AM 54.5 °F 52.7 °F 94% 30.16 in 0.2 mi SSW 4.6 mph - N/A   Overcast
7:15 AM 54.9 °F 53.4 °F 95% 30.17 in 1.0 mi SW 3.5 mph - N/A   Overcast
7:35 AM 55.6 °F 54.1 °F 95% 30.18 in 5.0 mi Calm Calm - N/A   Scattered Clouds
7:55 AM 57.0 °F 55.4 °F 94% 30.19 in 10.0 mi Calm Calm - N/A   Clear
8:15 AM 58.1 °F 56.3 °F 94% 30.19 in 10.0 mi Calm Calm - N/A   Scattered Clouds
8:35 AM 58.3 °F 55.9 °F 92% 30.19 in 10.0 mi SSW 4.6 mph - N/A   Clear
8:55 AM 59.9 °F 56.5 °F 88% 30.19 in 10.0 mi West 4.6 mph - N/A   Clear
9:15 AM 62.1 °F 54.9 °F 77% 30.20 in 10.0 mi West 10.4 mph - N/A   Clear
9:35 AM 63.0 °F 55.2 °F 76% 30.20 in 10.0 mi WNW 3.5 mph - N/A   Clear
9:55 AM 63.7 °F 54.7 °F 72% 30.21 in 10.0 mi West 5.8 mph - N/A   Clear
10:15 AM 64.8 °F 54.0 °F 68% 30.21 in 10.0 mi West 4.6 mph - N/A   Scattered Clouds
10:35 AM 66.0 °F 53.1 °F 63% 30.21 in 10.0 mi West 4.6 mph - N/A   Scattered Clouds
10:55 AM 67.3 °F 52.5 °F 59% 30.21 in 10.0 mi WSW 4.6 mph - N/A   Clear
11:15 AM 68.2 °F 51.4 °F 55% 30.21 in 10.0 mi WNW 3.5 mph - N/A   Clear
11:35 AM 68.9 °F 51.1 °F 53% 30.21 in 10.0 mi NW 3.5 mph - N/A   Scattered Clouds
11:55 AM 70.3 °F 53.6 °F 55% 30.20 in 10.0 mi NE 3.5 mph - N/A   Scattered Clouds
12:15 PM 71.1 °F 51.3 °F 49% 30.21 in 10.0 mi West 3.5 mph - N/A   Clear
12:35 PM 72.0 °F 50.4 °F 46% 30.21 in 10.0 mi WSW 5.8 mph - N/A   Clear
12:55 PM 72.7 °F 48.2 °F 42% 30.20 in 10.0 mi NNW 6.9 mph - N/A   Scattered Clouds
1:15 PM 73.6 °F 44.8 °F 36% 30.20 in 10.0 mi Calm Calm - N/A   Scattered Clouds
1:35 PM 74.1 °F 46.9 °F 38% 30.19 in 10.0 mi South 3.5 mph - N/A   Clear
1:55 PM 74.7 °F 44.2 °F 34% 30.19 in 10.0 mi Calm Calm - N/A   Clear
2:15 PM 75.2 °F 44.6 °F 34% 30.19 in 10.0 mi West 5.8 mph - N/A   Clear
2:35 PM 76.3 °F 43.0 °F 30% 30.19 in 10.0 mi West 8.1 mph - N/A   Clear
2:55 PM 75.9 °F 43.0 °F 31% 30.18 in 10.0 mi Calm Calm - N/A   Clear
3:15 PM 77.0 °F 40.8 °F 27% 30.18 in 10.0 mi Calm Calm - N/A   Scattered Clouds
3:35 PM 76.6 °F 39.4 °F 26% 30.17 in 10.0 mi NNE 3.5 mph - N/A   Clear
3:55 PM 77.7 °F 41.4 °F 27% 30.17 in 10.0 mi SW 10.4 mph - N/A   Clear
4:15 PM 78.1 °F 40.5 °F 26% 30.17 in 10.0 mi West 5.8 mph - N/A   Clear
4:35 PM 78.1 °F 40.3 °F 26% 30.16 in 10.0 mi SW 5.8 mph - N/A   Clear
4:55 PM 78.6 °F 39.9 °F 25% 30.16 in 10.0 mi SW 5.8 mph - N/A   Clear
5:15 PM 78.3 °F 39.9 °F 25% 30.15 in 10.0 mi Calm Calm - N/A   Clear
5:35 PM 78.6 °F 41.9 °F 27% 30.15 in 10.0 mi WSW 5.8 mph - N/A   Clear
5:55 PM 77.5 °F 41.9 °F 28% 30.15 in 10.0 mi SSW 3.5 mph - N/A   Clear
6:15 PM 76.6 °F 42.3 °F 29% 30.15 in 10.0 mi Calm Calm - N/A   Clear
6:35 PM 76.5 °F 41.0 °F 28% 30.15 in 10.0 mi SSW 4.6 mph - N/A   Clear
6:55 PM 75.2 °F 45.3 °F 34% 30.15 in 10.0 mi SSW 4.6 mph - N/A   Clear
7:15 PM 73.9 °F 47.5 °F 39% 30.14 in 10.0 mi Calm Calm - N/A   Clear
7:35 PM 73.2 °F 46.9 °F 39% 30.15 in 10.0 mi SSW 3.5 mph - N/A   Clear
7:55 PM 71.6 °F 46.9 °F 41% 30.15 in 10.0 mi Calm Calm - N/A   Clear
8:15 PM 71.1 °F 46.6 °F 42% 30.16 in 10.0 mi Calm Calm - N/A   Clear
8:35 PM 69.6 °F 46.6 °F 44% 30.17 in 10.0 mi Calm Calm - N/A   Clear
8:55 PM 68.0 °F 46.9 °F 47% 30.17 in 10.0 mi Calm Calm - N/A   Clear
9:15 PM 68.4 °F 46.8 °F 46% 30.17 in 10.0 mi Calm Calm - N/A   Clear
9:35 PM 66.6 °F 46.6 °F 49% 30.17 in 10.0 mi Calm Calm - N/A   Clear
9:55 PM 64.8 °F 46.6 °F 52% 30.17 in 10.0 mi Calm Calm - N/A   Clear
10:15 PM 63.0 °F 47.7 °F 57% 30.18 in 10.0 mi Calm Calm - N/A   Clear
10:35 PM 64.0 °F 47.5 °F 55% 30.19 in 10.0 mi Calm Calm - N/A   Clear
10:55 PM 59.7 °F 49.1 °F 68% 30.19 in 10.0 mi Calm Calm - N/A   Clear
11:15 PM 58.6 °F 50.0 °F 73% 30.20 in 10.0 mi SSW 3.5 mph - N/A   Clear
11:35 PM 57.7 °F 50.2 °F 76% 30.20 in 10.0 mi Calm Calm - N/A   Clear
11:55 PM 61.0 °F 49.6 °F 66% 30.20 in 10.0 mi Calm Calm - N/A   Clear